Terminal Aerodrome Forecast
Issued by NWS

Home | Current Version | Previous Version | Text Only | Print | Product List | Glossary On
Versions: 1 2 3 4 5 6 7 8 9 10 11 12 13 14 15 16 17 18 19 20 21 22 23 24 25 26 27 28 29 30 31 32 33 34
602
FTUS43 KDLH 250539
TAFHIB
TAF
KHIB 250539Z 2506/2606 15013G19KT P6SM VCSH OVC010 WS020/19035KT
      TEMPO 2506/2508 4SM -SHRA BR BKN006
     FM250800 16013G19KT 4SM -SHRA BR OVC006 WS020/19040KT
      TEMPO 2508/2511 2SM -TSRA BR BKN007 OVC022CB
     FM251200 18008KT 5SM BR VCSH OVC009 WS020/21038KT
      TEMPO 2514/2516 P6SM NSW BKN015
     FM251600 21008G16KT P6SM SCT040
     FM252200 25009G21KT P6SM VCSH SCT013 BKN028=

USA.gov is the U.S. government's official web portal to all federal, state and local government web resources and services.